EN

Hourly Weather Guildford

Today, 15 June, Tuesday

Time Temperature Precipitation Wind Pressure Humidity
00:00 +17°C° 0 mm 4 mps 757 mmHg 81%
01:00 +15°C° 0 mm 4 mps 757 mmHg 77%
02:00 +15°C° 0 mm 4 mps 757 mmHg 74%
03:00 +14°C° 0 mm 4 mps 757 mmHg 70%
04:00 +14°C° 0 mm 4 mps 758 mmHg 71%
05:00 +14°C° 0 mm 4 mps 758 mmHg 73%
06:00 +14°C° 0 mm 3 mps 758 mmHg 75%
07:00 +16°C° 0 mm 3 mps 758 mmHg 73%
08:00 +17°C° 0 mm 3 mps 758 mmHg 72%
09:00 +19°C° 0 mm 3 mps 758 mmHg 70%
10:00 +20°C° 0 mm 2 mps 758 mmHg 67%
11:00 +21°C° 0 mm 2 mps 758 mmHg 65%
12:00 +23°C° 0 mm 1 mps 757 mmHg 63%
13:00 +24°C° 0 mm 1 mps 757 mmHg 61%
14:00 +24°C° 0 mm 2 mps 757 mmHg 59%
15:00 +25°C° 0 mm 2 mps 756 mmHg 57%
16:00 +24°C° 0 mm 2 mps 756 mmHg 61%
17:00 +24°C° 0 mm 2 mps 756 mmHg 65%
18:00 +23°C° 0 mm 2 mps 755 mmHg 69%
19:00 +20°C° 0 mm 2 mps 755 mmHg 76%
20:00 +18°C° 0 mm 2 mps 755 mmHg 83%
21:00 +18°C° 0 mm 1 mps 755 mmHg 89%
22:00 +16°C° 0 mm 1 mps 755 mmHg 90%
23:00 +15°C° 0 mm 1 mps 754 mmHg 91%

Tomorrow, 16 June, Wednesday

Time Temperature Precipitation Wind Pressure Humidity
00:00 +15°C° 0 mm 1 mps 754 mmHg 92%
01:00 +14°C° 0 mm 1 mps 754 mmHg 92%
02:00 +14°C° 0 mm 1 mps 753 mmHg 92%
03:00 +13°C° 0 mm 1 mps 753 mmHg 92%
04:00 +14°C° 0 mm 1 mps 752 mmHg 89%
05:00 +15°C° 0 mm 1 mps 752 mmHg 87%
06:00 +16°C° 0 mm 1 mps 752 mmHg 85%
07:00 +19°C° 0 mm 1 mps 751 mmHg 78%
08:00 +20°C° 0 mm 2 mps 751 mmHg 72%
09:00 +23°C° 0 mm 2 mps 751 mmHg 66%
10:00 +24°C° 0 mm 3 mps 751 mmHg 63%
11:00 +25°C° 0 mm 3 mps 751 mmHg 59%
12:00 +26°C° 0 mm 3 mps 750 mmHg 56%
13:00 +26°C° 0 mm 3 mps 750 mmHg 56%
14:00 +26°C° 0 mm 3 mps 750 mmHg 56%
15:00 +27°C° 0 mm 3 mps 749 mmHg 56%
16:00 +26°C° 0 mm 2 mps 749 mmHg 60%
17:00 +26°C° 0 mm 2 mps 749 mmHg 64%
18:00 +25°C° 0 mm 2 mps 749 mmHg 69%
19:00 +23°C° 0.2 mm 2 mps 749 mmHg 75%
20:00 +21°C° 0.2 mm 1 mps 749 mmHg 82%
21:00 +19°C° 0.2 mm 1 mps 749 mmHg 89%
22:00 +19°C° 0 mm 1 mps 749 mmHg 90%
23:00 +18°C° 0 mm 1 mps 748 mmHg 90%

Day after tomorrow, 17 June, Thursday

Time Temperature Precipitation Wind Pressure Humidity
00:00 +18°C° 0 mm 1 mps 748 mmHg 91%
01:00 +18°C° 0.1 mm 1 mps 748 mmHg 91%
02:00 +18°C° 0.1 mm 1 mps 748 mmHg 92%
03:00 +18°C° 0.1 mm 1 mps 748 mmHg 92%
04:00 +17°C° 0.5 mm 2 mps 748 mmHg 93%
05:00 +17°C° 0.5 mm 2 mps 748 mmHg 94%
06:00 +17°C° 0.5 mm 2 mps 748 mmHg 95%
07:00 +17°C° 0.2 mm 2 mps 748 mmHg 93%
08:00 +18°C° 0.2 mm 3 mps 749 mmHg 91%
09:00 +18°C° 0.2 mm 3 mps 749 mmHg 89%
10:00 +18°C° 0 mm 3 mps 750 mmHg 88%
11:00 +18°C° 0 mm 3 mps 750 mmHg 88%
12:00 +18°C° 0 mm 3 mps 751 mmHg 87%
13:00 +19°C° 0 mm 3 mps 751 mmHg 82%
14:00 +20°C° 0 mm 3 mps 751 mmHg 78%
15:00 +21°C° 0 mm 3 mps 751 mmHg 74%
16:00 +20°C° 0.1 mm 3 mps 751 mmHg 75%
17:00 +20°C° 0.1 mm 3 mps 751 mmHg 77%
18:00 +20°C° 0.1 mm 3 mps 751 mmHg 79%
19:00 +19°C° 0.1 mm 2 mps 752 mmHg 82%
20:00 +18°C° 0.1 mm 2 mps 752 mmHg 86%
21:00 +17°C° 0.1 mm 2 mps 752 mmHg 90%
22:00 +17°C° 0.2 mm 3 mps 752 mmHg 92%
23:00 +16°C° 0.2 mm 3 mps 752 mmHg 94%

18 June, Friday

Time Temperature Precipitation Wind Pressure Humidity
00:00 +15°C° 0.2 mm 4 mps 752 mmHg 95%
01:00 +14°C° 0.6 mm 4 mps 752 mmHg 96%
02:00 +14°C° 0.6 mm 4 mps 752 mmHg 96%
03:00 +13°C° 0.6 mm 4 mps 752 mmHg 96%
04:00 +13°C° 1.3 mm 5 mps 752 mmHg 96%
05:00 +13°C° 1.3 mm 6 mps 752 mmHg 96%
06:00 +11°C° 1.3 mm 6 mps 752 mmHg 96%
07:00 +11°C° 2.8 mm 6 mps 752 mmHg 96%
08:00 +11°C° 2.8 mm 6 mps 751 mmHg 96%
09:00 +11°C° 2.8 mm 6 mps 751 mmHg 96%
10:00 +11°C° 3.5 mm 7 mps 751 mmHg 97%
11:00 +11°C° 3.5 mm 7 mps 751 mmHg 97%
12:00 +10°C° 3.5 mm 7 mps 751 mmHg 97%
13:00 +11°C° 4.2 mm 7 mps 751 mmHg 96%
14:00 +11°C° 4.2 mm 7 mps 751 mmHg 96%
15:00 +11°C° 4.2 mm 6 mps 751 mmHg 95%
16:00 +11°C° 0.3 mm 6 mps 751 mmHg 95%
17:00 +11°C° 0.3 mm 6 mps 751 mmHg 95%
18:00 +12°C° 0.3 mm 5 mps 752 mmHg 95%
19:00 +10°C° 0 mm 5 mps 752 mmHg 95%
20:00 +10°C° 0 mm 5 mps 753 mmHg 95%
21:00 +11°C° 0 mm 4 mps 753 mmHg 94%
22:00 +11°C° 0 mm 4 mps 753 mmHg 95%
23:00 +10°C° 0 mm 3 mps 754 mmHg 95%

19 June, Saturday

Time Temperature Precipitation Wind Pressure Humidity
00:00 +10°C° 0 mm 2 mps 754 mmHg 95%
01:00 +10°C° 0 mm 2 mps 754 mmHg 94%
02:00 +10°C° 0 mm 2 mps 754 mmHg 93%
03:00 +10°C° 0 mm 2 mps 754 mmHg 92%
04:00 +12°C° 0 mm 2 mps 755 mmHg 90%
05:00 +12°C° 0 mm 2 mps 755 mmHg 88%
06:00 +12°C° 0 mm 2 mps 755 mmHg 85%
07:00 +13°C° 0 mm 2 mps 755 mmHg 82%
08:00 +14°C° 0 mm 2 mps 755 mmHg 79%
09:00 +15°C° 0 mm 2 mps 755 mmHg 76%
10:00 +16°C° 0 mm 3 mps 755 mmHg 72%
11:00 +17°C° 0 mm 3 mps 754 mmHg 69%
12:00 +19°C° 0 mm 3 mps 754 mmHg 65%
13:00 +19°C° 0 mm 3 mps 753 mmHg 67%
14:00 +19°C° 0 mm 4 mps 753 mmHg 68%
15:00 +19°C° 0 mm 4 mps 752 mmHg 69%
16:00 +18°C° 0 mm 4 mps 752 mmHg 71%
17:00 +18°C° 0 mm 4 mps 752 mmHg 74%
18:00 +17°C° 0 mm 4 mps 752 mmHg 76%
19:00 +15°C° 0 mm 5 mps 751 mmHg 78%
20:00 +14°C° 0 mm 5 mps 750 mmHg 80%
21:00 +13°C° 0 mm 5 mps 750 mmHg 82%
22:00 +13°C° 0 mm 6 mps 749 mmHg 82%
23:00 +13°C° 0 mm 6 mps 748 mmHg 82%

20 June, Sunday

Time Temperature Precipitation Wind Pressure Humidity
00:00 +13°C° 0 mm 6 mps 747 mmHg 82%
01:00 +13°C° 0.8 mm 6 mps 746 mmHg 87%
02:00 +12°C° 0.8 mm 7 mps 745 mmHg 92%
03:00 +12°C° 0.8 mm 7 mps 743 mmHg 98%
04:00 +14°C° 0.5 mm 7 mps 743 mmHg 98%
05:00 +15°C° 0.5 mm 7 mps 742 mmHg 98%
06:00 +16°C° 0.5 mm 7 mps 742 mmHg 97%
07:00 +16°C° 0 mm 7 mps 742 mmHg 94%
08:00 +16°C° 0 mm 7 mps 743 mmHg 91%
09:00 +16°C° 0 mm 8 mps 743 mmHg 88%
10:00 +16°C° 0 mm 8 mps 743 mmHg 82%
11:00 +17°C° 0 mm 7 mps 744 mmHg 76%
12:00 +18°C° 0 mm 7 mps 744 mmHg 71%
13:00 +18°C° 0 mm 7 mps 744 mmHg 70%
14:00 +18°C° 0 mm 7 mps 744 mmHg 70%
15:00 +20°C° 0 mm 7 mps 744 mmHg 70%
16:00 +18°C° 0.2 mm 7 mps 744 mmHg 74%
17:00 +19°C° 0.2 mm 6 mps 744 mmHg 79%
18:00 +17°C° 0.2 mm 6 mps 744 mmHg 83%
19:00 +16°C° 0 mm 5 mps 744 mmHg 86%
20:00 +15°C° 0 mm 4 mps 745 mmHg 89%
21:00 +14°C° 0 mm 3 mps 745 mmHg 91%
22:00 +14°C° 0 mm 3 mps 745 mmHg 92%
23:00 +14°C° 0 mm 4 mps 745 mmHg 94%
Show more